This is the latest recevied weather packets stored in our database for station/object JQ1YUX-13. If no packets are shown the sender has not sent any weather packets the latest 1 day(s).
| Time | Temp. | Humidity | Pressure | Rain* | Wind** | Luminosity | Snow |
|---|---|---|---|---|---|---|---|
| 1836274730 | 27.78° C | 76% | 1012.1 hPa | 0 mm | 0.45 m/s, 208° | - | - |
| 1778050651 | 20.56° C | 78% | 1017.9 hPa | 0 mm | 2.24 m/s, 184° | - | - |
| 1778049752 | 20.56° C | 77% | 1018.1 hPa | 0 mm | 1.34 m/s, 195° | - | - |
| 1778048853 | 21.11° C | 77% | 1018 hPa | 0 mm | 0.89 m/s, 198° | - | - |
| 1778047951 | 21.11° C | 77% | 1018.1 hPa | 0 mm | 1.34 m/s, 181° | - | - |
| 1778047051 | 21.11° C | 78% | 1018.2 hPa | 0 mm | 2.68 m/s, 176° | - | - |
| 1778046152 | 21.11° C | 77% | 1018.2 hPa | 0 mm | 2.24 m/s, 171° | - | - |
| 1778045253 | 20.56° C | 78% | 1018.2 hPa | 0 mm | 0.89 m/s, 185° | - | - |
| 1778044351 | 20.56° C | 78% | 1018.3 hPa | 0 mm | 2.68 m/s, 175° | - | - |
| 1778043452 | 20.56° C | 76% | 1019 hPa | 0 mm | 2.68 m/s, 170° | - | - |
| 1778042553 | 21.11° C | 75% | 1019 hPa | 0 mm | 1.34 m/s, 180° | - | - |
| 1778041651 | 21.11° C | 74% | 1019.1 hPa | 0 mm | 2.24 m/s, 184° | - | - |
| 1778040752 | 21.11° C | 74% | 1019.2 hPa | 0 mm | 1.34 m/s, 171° | - | - |
| 1778039853 | 21.11° C | 75% | 1019.4 hPa | 0 mm | 2.24 m/s, 186° | - | - |
| 1778038951 | 21.11° C | 74% | 1019.5 hPa | 0 mm | 1.34 m/s, 187° | - | - |
| 1778038052 | 21.11° C | 73% | 1019.5 hPa | 0 mm | 2.68 m/s, 192° | - | - |
| 1778037152 | 21.11° C | 73% | 1019.7 hPa | 0 mm | 3.13 m/s, 175° | - | - |
| 1778036253 | 21.11° C | 73% | 1019.9 hPa | 0 mm | 2.68 m/s, 181° | - | - |
| 1778035351 | 20.56° C | 74% | 1020.1 hPa | 0 mm | 2.68 m/s, 184° | - | - |
| 1778034451 | 20.56° C | 75% | 1020.4 hPa | 0 mm | 0.89 m/s, 180° | - | - |
| 1778033551 | 20.56° C | 74% | 1020.7 hPa | 0 mm | 2.24 m/s, 212° | - | - |
| 1778032652 | 20.56° C | 73% | 1020.8 hPa | 0 mm | 0.89 m/s, 142° | - | - |
| 1778031752 | 20.56° C | 70% | 1021.2 hPa | 0 mm | 0 m/s | - | - |
| 1778030853 | 20.56° C | 69% | 1021.4 hPa | 0 mm | 0 m/s | - | - |
| 1778029952 | 20.56° C | 69% | 1021.4 hPa | 0 mm | 0 m/s | - | - |
* Rain latest hour (hover to see other rain measurements)
** Current wind speed in m/s (hover to see current wind gust speed)